TimeCDT,TemperatureF,Dew PointF,Humidity,Sea Level PressureIn,VisibilityMPH,Wind Direction,Wind SpeedMPH,Gust SpeedMPH,PrecipitationIn,Events,Conditions,WindDirDegrees,DateUTC
12:56 AM,54.0,46.9,77,30.15,10.0,Calm,Calm,-,N/A,,Overcast,0,2012-10-08 05:56:00
1:56 AM,54.0,48.0,80,30.16,10.0,Calm,Calm,-,N/A,,Overcast,0,2012-10-08 06:56:00
2:56 AM,53.1,46.9,80,30.17,10.0,North,4.6,-,N/A,,Overcast,360,2012-10-08 07:56:00
3:56 AM,53.1,46.9,80,30.15,10.0,North,5.8,-,N/A,,Overcast,10,2012-10-08 08:56:00
4:56 AM,52.0,46.9,83,30.16,10.0,North,6.9,-,N/A,,Overcast,10,2012-10-08 09:56:00
5:15 AM,51.8,46.4,82,30.17,10.0,North,6.9,-,N/A,,Overcast,10,2012-10-08 10:15:00
5:30 AM,51.8,46.4,82,30.17,10.0,North,8.1,-,N/A,,Overcast,10,2012-10-08 10:30:00
5:56 AM,51.1,45.0,80,30.18,10.0,Variable,3.5,-,N/A,,Overcast,0,2012-10-08 10:56:00
6:22 AM,50.0,44.6,82,30.19,10.0,North,6.9,-,N/A,,Overcast,10,2012-10-08 11:22:00
6:56 AM,50.0,45.0,83,30.20,10.0,NNE,5.8,-,N/A,,Overcast,20,2012-10-08 11:56:00
7:56 AM,48.9,46.9,93,30.21,10.0,North,4.6,-,0.00,,Overcast,360,2012-10-08 12:56:00
8:24 AM,48.2,46.4,93,30.21,10.0,NNE,5.8,-,N/A,,Mostly Cloudy,20,2012-10-08 13:24:00
8:44 AM,51.8,46.4,82,30.22,10.0,Variable,4.6,-,N/A,,Mostly Cloudy,0,2012-10-08 13:44:00
8:56 AM,51.1,45.0,80,30.23,10.0,NNE,4.6,-,N/A,,Overcast,30,2012-10-08 13:56:00
9:28 AM,53.6,46.4,77,30.23,10.0,NNE,6.9,-,N/A,,Mostly Cloudy,30,2012-10-08 14:28:00
9:56 AM,54.0,45.0,72,30.24,10.0,North,8.1,-,N/A,,Scattered Clouds,10,2012-10-08 14:56:00
10:56 AM,57.0,46.0,67,30.23,10.0,Variable,4.6,-,N/A,,Overcast,0,2012-10-08 15:56:00
11:56 AM,61.0,45.0,56,30.21,10.0,Variable,5.8,-,N/A,,Mostly Cloudy,0,2012-10-08 16:56:00
12:56 PM,61.0,46.0,58,30.20,10.0,NNE,5.8,-,N/A,,Overcast,30,2012-10-08 17:56:00
1:56 PM,61.0,45.0,56,30.17,10.0,Variable,3.5,-,N/A,,Overcast,0,2012-10-08 18:56:00
2:56 PM,62.1,46.0,56,30.14,10.0,NNE,9.2,-,N/A,,Mostly Cloudy,20,2012-10-08 19:56:00
3:56 PM,64.9,46.0,50,30.12,10.0,Variable,3.5,-,N/A,,Clear,0,2012-10-08 20:56:00
4:56 PM,62.1,46.0,56,30.12,10.0,Calm,Calm,-,N/A,,Partly Cloudy,0,2012-10-08 21:56:00
5:56 PM,61.0,46.9,60,30.12,10.0,North,3.5,-,N/A,,Clear,10,2012-10-08 22:56:00
6:56 PM,55.0,48.0,77,30.12,10.0,Calm,Calm,-,N/A,,Clear,0,2012-10-08 23:56:00
7:56 PM,50.0,48.0,93,30.13,10.0,Calm,Calm,-,N/A,,Clear,0,2012-10-09 00:56:00
8:56 PM,50.0,46.9,89,30.14,10.0,Calm,Calm,-,N/A,,Clear,0,2012-10-09 01:56:00
9:56 PM,48.0,46.0,93,30.15,10.0,Calm,Calm,-,N/A,,Clear,0,2012-10-09 02:56:00
10:56 PM,46.9,45.0,93,30.14,9.0,Calm,Calm,-,N/A,,Clear,0,2012-10-09 03:56:00
11:56 PM,45.0,43.0,93,30.14,8.0,Calm,Calm,-,0.01,,Clear,0,2012-10-09 04:56:00